{"data":{"norad_id":47279,"epoch":"2026-09-20T03:32:12.615072Z","epoch_age_seconds":44929,"freshness":"FRESH","line1":"1 47279U 20100X   26263.14736823 -.00000416  00000+0 -11904-2 0  9994","line2":"2 47279  87.8989 331.8034 0001942  94.2683 265.8667 13.12442877277195","mean_motion":13.12442877,"eccentricity":0.0001942,"inclination_deg":87.8989,"raan_deg":331.8034,"arg_perigee_deg":94.2683,"mean_anomaly_deg":265.8667,"bstar":-0.0011904,"rev_number":27719,"period_min":109.7190609386,"perigee_km":1212.2494260183,"apogee_km":1215.1981047395,"semimajor_km":7591.8607653789,"source":"CELESTRAK","updated_at":"2026-09-20T09:00:44.580281Z"}}